Printer-friendly version

IAU Minor Planet Center

Minor Planet Center

MPEC 2003-A33 : COMET P/2002 T5 (LINEAR)

The following Minor Planet Electronic Circular may be linked-to from your own Web pages, but must not otherwise be redistributed electronically.


Read MPEC 2003-A32 Read MPEC 2003-A34


M.P.E.C. 2003-A33                                Issued 2003 Jan. 6, 17:29 UT

     The Minor Planet Electronic Circulars contain information on unusual
         minor planets and routine data on comets.  They are published
   on behalf of Commission 20 of the International Astronomical Union by the
          Minor Planet Center, Smithsonian Astrophysical Observatory,
                          Cambridge, MA 02138, U.S.A.

             Prepared using the Tamkin Foundation Computer Network

                              MPC@CFA.HARVARD.EDU
          URL http://cfa-www.harvard.edu/iau/mpc.html  ISSN 1523-6714

                           COMET P/2002 T5 (LINEAR)

Observations:
    PK02T050  C2002 12 28.57597 04 09 07.65 -12 17 13.3                      349
    PK02T050  C2002 12 28.58030 04 09 07.54 -12 17 11.7                      349
    PK02T050  C2002 12 28.58447 04 09 07.47 -12 17 09.7                      349
    PK02T050  C2002 12 28.58743 04 09 07.40 -12 17 08.8          16.8 T      349
    PK02T050  C2002 12 28.97441 04 08 58.25 -12 14 27.9          16.3 N      A02
    PK02T050  C2002 12 28.97667 04 08 58.23 -12 14 26.8          16.2 N      A02
    PK02T050  C2002 12 28.97892 04 08 58.15 -12 14 25.9          16.6 N      A02
    PK02T050  C2003 01 03.14758 04 07 08.35 -11 36 40.5          17.5 T      704
    PK02T050  C2003 01 03.17754 04 07 07.81 -11 36 27.1          17.8 T      704
    PK02T050  C2003 01 03.19415 04 07 07.45 -11 36 18.5          18.0 T      704
    PK02T050  C2003 01 03.22363 04 07 06.79 -11 36 05.3          16.6 T      699
    PK02T050  C2003 01 03.24144 04 07 06.38 -11 35 57.6                      699
    PK02T050  C2003 01 03.25921 04 07 06.11 -11 35 49.5                      699
    PK02T050  C2003 01 03.27701 04 07 05.74 -11 35 41.1                      699
    PK02T050  C2003 01 03.93964 04 06 53.40 -11 30 33.7          16.9 T      232
    PK02T050  C2003 01 03.94891 04 06 53.22 -11 30 30.7          16.9 T      232
    PK02T050  C2003 01 03.95955 04 06 53.05 -11 30 25.7          16.9 T      232
    PK02T050  C2003 01 04.58962 04 06 41.61 -11 25 30.3          17.0 T      348
    PK02T050  C2003 01 04.59889 04 06 41.37 -11 25 25.0                      348

Observer details:
232 Masquefa Observatory.  Observer E. Reina.  0.25-m f/6.3 Schmidt-Cassegrain
    + CCD.
348 Ayabe.  Observer N. Otuki.  0.28-m f/5.5 Schmidt-Cassegrain + CCD.
349 Ageo.  Observer K. Kadota.  0.18-m f/5.5 reflector + CCD, 0.25-m f/5.0
    reflector + CCD.
699 Lowell Observatory-LONEOS.  Observer M. E. Van Ness.  0.59-m LONEOS
    Schmidt + CCD.
704 Lincoln Laboratory ETS, New Mexico.  Observers M. Blythe, F. Shelly,
    M. Bezpalko, R. Huber, L. Manguso, S. Adams, D. Torres, T. Brothers,
    S. Partridge.  Measurers J. Stuart, R. Sayer, J. Evans, P. Hopman.  1.0-m
    f/2.15 reflector + CCD.
A02 Masia Cal Maciarol.  Observer J. Salto.  0.25-m f/3.7 Schmidt-Cassegrain
    + CCD.

Orbital elements:
    P/2002 T5 (LINEAR)
Epoch 2003 June 10.0 TT = JDT 2452800.5
T 2003 June 27.80859 TT                                 MPC
q   3.9342620            (2000.0)            P               Q
n   0.05340211     Peri.  326.74961     -0.06645900     -0.90079726
a   6.9838851      Node   123.33167     +0.99025478     -0.11229806
e   0.4366657      Incl.   30.90467     +0.12238742     +0.41946806
P  18.46
Residuals in seconds of arc
021005 704  0.0   0.7+    021103 349  0.0   0.3+    021130 704  0.4+  0.3+
021005 704 (2.1+  0.1+)   021103 349  0.2+  0.0     021130 704  0.3+  0.8+
021005 704  0.4-  0.4+    021103 349  0.4+  0.2-    021130 704  0.9-  0.5+
021005 704  0.0   0.9-    021103 349  0.5+  0.0     021130 704  0.7-  0.8+
021006 704  0.3+  1.0+    021104 349  0.4+  0.4+    021201 704  0.8+  0.3+
021006 704  0.7+  0.5+    021104 349  0.7-  0.4+    021201 704  0.6+  0.7+
021006 704  0.4+  0.4+    021104 349  0.9-  0.6+    021201 704  0.2-  0.2+
021006 704  0.2+  0.3-    021104 349  0.7-  1.2-    021201 704  0.3+  0.1+
021006 704  0.0   1.2-    021105 204  0.0   0.2+    021201 704  0.3-  0.4-
021011 704  0.3+  1.2+    021105 204  0.5-  0.2+    021206 H43  0.7+  1.5+
021011 704  1.2+  0.3+    021105 204  0.5-  0.3+    021206 232  0.0   0.2+
021011 704  0.3+  0.1+    021105 204  0.4-  0.4+    021206 232  0.1+  0.2+
021011 704  0.8+  0.1-    021105 644  0.4+  0.2-    021206 232  0.1-  0.4-
021011 704  0.5-  0.9-    021105 644  0.3-  0.7+    021207 H43  0.6-  1.3+
021012 704  1.7+  1.1+    021105 644  0.0   0.1+    021210 340  1.5+  0.2-
021012 704  0.7+  0.1-    021105 360  0.0   0.3+    021210 340  0.7+  0.9-
021012 704  0.2-  0.1+    021105 360  0.5-  0.4+    021210 340  1.9+  1.0-
021018 850  0.7-  0.1-    021111 670  0.7+  0.9+    021210 340  1.4+  0.8-
021018 850  0.1-  0.4-    021111 670  0.3+  1.4+    021210 340  0.8+  0.7-
021018 850  0.5-  0.4+    021112 360  0.4+  0.6-    021212 608  1.0-  0.4+
021018 850  0.1-  0.7+    021112 360  0.6+  0.7-    021212 608  0.2-  0.6+
021018 734  0.2-  0.2+    021112 246  0.1-  0.2-    021212 608  0.7-  0.5+
021018 734  0.2+  0.4+    021112 246  0.1-  0.4-    021213 673  0.5+  0.3-
021018 734  0.0   0.3+    021112 246  0.0   0.1-    021213 673  0.5+  0.3-
021018 413  0.5+  0.2+    021112 246  0.1+  0.3-    021213 673  0.3+  0.2-
021018 413  0.6+  0.1+    021114 644  0.3-  0.0     021213 673  0.1+  0.0
021018 413  0.5+  0.0     021114 644  0.3-  0.1+    021214 340  0.7-  0.7-
021019 J95  0.4-  0.2+    021114 644  0.2-  0.0     021214 340 (1.9-  2.7+)
021019 J95  0.3+  0.8-    021115 699  0.8-  0.0     021214 340 (2.0-  0.7+)
021019 J95  0.6-  0.9-    021115 699  1.1-  0.5+    021214 340  0.6+  0.1+
021020 176  0.1+  0.4+    021115 699  1.8-  0.0     021222 340  0.6+  1.0+
021020 176  0.1+  0.4+    021115 699  1.0-  0.2-    021222 340  1.6+  0.2+
021020 176  0.1+  0.2+    021116 699  1.0-  0.6+    021222 340  0.3-  1.4-
021020 176  0.1-  0.1+    021116 699  0.9-  0.2-    021224 340  0.1+  1.1-
021020 176  0.0   0.1+    021116 699  1.2-  0.0     021224 340  1.2+  0.3+
021020 620  0.2+  0.1-    021116 699  0.9+  0.4-    021224 340  0.8-  1.0+
021020 620  0.7+  0.3-    021116 170 (0.3-  2.5+)   021226 340  0.0   0.1-
021020 620  0.2-  1.0-    021116 170  0.1+  0.4+    021226 340  1.1-  1.8-
021020 620  0.3-  0.2+    021122 213  0.0   0.6+    021226 340  0.8+  0.4+
021020 649  0.2+  0.2+    021122 213  0.4+  0.5-    021226 340  0.1+  1.3-
021020 670  1.5+  0.5+    021124 699  0.6-  0.4+    021227 360  0.2+  0.4-
021020 670  1.0+  0.5-    021124 699  0.5+  0.0     021227 360  0.3+  0.4-
021020 649  0.5+  0.1+    021124 699  0.6-  0.3+    021228 349  0.3-  0.2-
021020 649  0.3+  0.4+    021124 699  1.0-  0.1+    021228 349  0.4-  0.4-
021022 448  0.5-  0.3-    021126 704  0.8+  0.9-    021228 349  0.1+  0.2-
021022 448  0.2+  0.5-    021126 704  0.7+  0.9-    021228 349  0.1+  0.5-
021022 448  0.3+  0.2-    021126 704  0.1-  0.1+    021228 A02  0.6-  0.0
021025 213  0.1-  0.3-    021128 360  0.3+  0.4-    021228 A02  0.1-  0.2+
021025 213  0.1+  0.6-    021128 360  0.2+  0.6-    021228 A02  0.5-  0.2+
021025 213  0.2-  0.7-    021128 355  0.3-  0.5-    021229 340  0.1-  0.3-
021025 213  0.2-  0.4-    021128 355  0.4+  0.8-    021229 340  0.5-  0.8-
021026 170  0.5-  0.6+    021128 355  0.1+  1.0-    021229 340  0.8-  0.2+
021026 170  0.2+  0.1-    021129 H43 (4.0+  4.1-)   021229 340  0.7+  0.2-
021028 J95  0.4-  0.5+    021129 H43  0.7+  0.7-    030103 704  0.1+  0.4+
021028 J95  0.2-  0.4+    021129 213  0.1-  1.0-    030103 704  1.0+  0.1+
021028 704  0.7+  0.1-    021129 213  0.7-  0.4+    030103 704  0.6+  1.0+
021028 704  0.8-  0.1+    021129 170  0.1+  0.3-    030103 699  0.7-  0.7+
021028 704  0.1+  0.7-    021129 170  1.5-  0.4-    030103 699  1.5-  0.2+
021028 704  0.3+  0.4-    021129 170  0.6+  0.3-    030103 699  0.3-  0.1+
021028 704  1.2-  1.3-    021130 704  0.4+  0.1+    030103 699  0.5-  0.3+
021029 349  1.6-  0.2+    021130 704  0.7+  0.1-    030103 232  0.1-  1.5+
021029 349  0.8-  0.7-    021130 704  0.8+  0.1-    030103 232  0.1-  0.2+
021029 349  1.2-  0.7-    021130 704  0.7+  0.5-    030103 232  0.4+  0.2+
021029 349  2.0-  0.2-    021130 704  0.3+  0.0     030104 348  0.1+  0.9+
021029 349  0.8-  1.1+    021130 704  0.5+  0.3+    030104 348  0.9-  1.8+

Brian G. Marsden             (C) Copyright 2003 MPC           M.P.E.C. 2003-A33

Read MPEC 2003-A32 Read MPEC 2003-A34


Our Web policy. Index to the CBAT/MPC/ICQ pages.


Valid HTML 4.01!